TimePDT,TemperatureF,Dew PointF,Humidity,Sea Level PressureIn,VisibilityMPH,Wind Direction,Wind SpeedMPH,Gust SpeedMPH,PrecipitationIn,Events,Conditions,WindDirDegrees,DateUTC
12:53 AM,48.0,44.1,86,29.98,10.0,Calm,Calm,-,N/A,,Overcast,0,2013-03-27 07:53:00
1:53 AM,46.9,44.1,90,29.96,10.0,NNW,3.5,-,N/A,,Overcast,340,2013-03-27 08:53:00
2:53 AM,46.9,43.0,86,29.95,10.0,Calm,Calm,-,N/A,,Overcast,0,2013-03-27 09:53:00
3:53 AM,45.0,43.0,93,29.95,7.0,Calm,Calm,-,N/A,,Partly Cloudy,0,2013-03-27 10:53:00
4:53 AM,43.0,41.0,93,29.94,3.0,Calm,Calm,-,N/A,,Clear,0,2013-03-27 11:53:00
4:57 AM,42.8,41.0,93,29.94,1.8,Calm,Calm,-,N/A,,Clear,0,2013-03-27 11:57:00
5:11 AM,42.8,39.2,87,29.94,3.0,Calm,Calm,-,N/A,,Mostly Cloudy,0,2013-03-27 12:11:00
5:32 AM,42.8,39.2,87,29.94,1.8,Calm,Calm,-,N/A,,Overcast,0,2013-03-27 12:32:00
5:53 AM,42.1,41.0,96,29.94,0.8,Calm,Calm,-,N/A,,Mostly Cloudy,0,2013-03-27 12:53:00
6:01 AM,42.8,41.0,93,29.94,0.5,Calm,Calm,-,N/A,Fog,Fog,0,2013-03-27 13:01:00
6:08 AM,42.8,39.2,87,29.94,0.2,Calm,Calm,-,N/A,Fog,Fog,0,2013-03-27 13:08:00
6:53 AM,41.0,39.9,96,29.95,0.5,Calm,Calm,-,N/A,Fog,Fog,0,2013-03-27 13:53:00
7:07 AM,41.0,39.2,93,29.95,0.2,Calm,Calm,-,N/A,Fog,Fog,0,2013-03-27 14:07:00
7:49 AM,42.8,42.8,100,29.95,0.5,Calm,Calm,-,N/A,Fog,Fog,0,2013-03-27 14:49:00
7:53 AM,44.1,42.1,93,29.95,0.5,Calm,Calm,-,N/A,Fog,Fog,0,2013-03-27 14:53:00
7:59 AM,44.6,42.8,93,29.95,2.0,Calm,Calm,-,N/A,,Overcast,0,2013-03-27 14:59:00
8:10 AM,44.6,42.8,93,29.95,4.0,Calm,Calm,-,N/A,,Overcast,0,2013-03-27 15:10:00
8:36 AM,44.6,42.8,93,29.95,10.0,Calm,Calm,-,N/A,,Overcast,0,2013-03-27 15:36:00
8:53 AM,46.0,43.0,89,29.95,10.0,Calm,Calm,-,N/A,,Mostly Cloudy,0,2013-03-27 15:53:00
9:53 AM,48.0,44.1,86,29.96,6.0,Calm,Calm,-,0.00,Rain,Light Rain,0,2013-03-27 16:53:00
10:53 AM,52.0,46.9,83,29.96,7.0,Calm,Calm,-,0.01,,Overcast,0,2013-03-27 17:53:00
11:28 AM,53.6,46.4,77,29.96,4.0,Calm,Calm,-,N/A,,Haze,0,2013-03-27 18:28:00
11:53 AM,54.0,46.9,77,29.96,5.0,Calm,Calm,-,N/A,,Haze,0,2013-03-27 18:53:00
12:53 PM,59.0,45.0,60,29.95,10.0,Calm,Calm,-,N/A,,Overcast,0,2013-03-27 19:53:00
1:53 PM,59.0,44.1,58,29.94,10.0,Calm,Calm,-,N/A,,Overcast,0,2013-03-27 20:53:00
2:53 PM,61.0,46.0,58,29.92,10.0,Calm,Calm,-,N/A,,Clear,0,2013-03-27 21:53:00
3:53 PM,63.0,46.0,54,29.91,10.0,Calm,Calm,-,N/A,,Mostly Cloudy,0,2013-03-27 22:53:00
4:53 PM,61.0,48.9,64,29.91,10.0,Calm,Calm,-,0.02,Rain,Light Rain,0,2013-03-27 23:53:00
5:53 PM,59.0,46.9,64,29.93,10.0,West,5.8,-,0.01,,Mostly Cloudy,260,2013-03-28 00:53:00
6:53 PM,57.0,46.9,69,29.94,10.0,WSW,4.6,-,N/A,,Mostly Cloudy,240,2013-03-28 01:53:00
7:53 PM,55.0,48.9,80,29.95,10.0,SW,6.9,-,N/A,,Overcast,230,2013-03-28 02:53:00
8:53 PM,54.0,46.9,77,29.98,10.0,SW,4.6,-,N/A,,Overcast,230,2013-03-28 03:53:00
9:53 PM,53.1,46.9,80,29.99,10.0,South,4.6,-,N/A,,Overcast,180,2013-03-28 04:53:00
10:53 PM,48.0,45.0,89,30.00,10.0,South,6.9,-,N/A,,Mostly Cloudy,180,2013-03-28 05:53:00
11:53 PM,48.9,46.0,90,30.01,10.0,West,4.6,-,N/A,,Overcast,270,2013-03-28 06:53:00